Radiation Dose at Monitoring Post of Fukushima Daini Nuclear Power Station
Date,Time,MP-1(microSv/h),MP-2(microSv/h),MP-3(microSv/h),MP-4(microSv/h),MP-5(microSv/h),MP-6(microSv/h),MP-7(microSv/h),Wind Direction,Wind Velocity(m/s),Rain
2018/12/20,00:00,0.229,0.190,0.307,0.289,0.277,0.153,0.094,north-northeast,2.6,No
2018/12/20,00:10,0.229,0.191,0.306,0.288,0.276,0.154,0.095,-,CALM,No
2018/12/20,00:20,0.229,0.191,0.308,0.288,0.275,0.153,0.095,south,0.6,No
2018/12/20,00:30,0.229,0.190,0.307,0.288,0.275,0.153,0.094,-,CALM,No
2018/12/20,00:40,0.228,0.190,0.306,0.289,0.276,0.154,0.095,west,2.2,No
2018/12/20,00:50,0.228,0.189,0.306,0.288,0.275,0.153,0.095,west,4.3,No
2018/12/20,01:00,0.229,0.190,0.307,0.288,0.275,0.153,0.095,northwest,3.6,No
2018/12/20,01:10,0.230,0.189,0.307,0.288,0.275,0.154,0.094,north-northwest,2.8,No
2018/12/20,01:20,0.230,0.190,0.306,0.291,0.274,0.154,0.095,north-northwest,2.5,No
2018/12/20,01:30,0.229,0.190,0.308,0.288,0.276,0.154,0.096,north-northwest,2.4,No
2018/12/20,01:40,0.229,0.190,0.307,0.288,0.276,0.153,0.094,north,2.0,No
2018/12/20,01:50,0.229,0.190,0.306,0.288,0.275,0.153,0.095,north-northwest,1.2,No
2018/12/20,02:00,0.229,0.190,0.307,0.288,0.275,0.153,0.095,west-northwest,1.7,No
2018/12/20,02:10,0.228,0.191,0.306,0.290,0.276,0.153,0.095,west-northwest,1.5,No
2018/12/20,02:20,0.228,0.191,0.307,0.288,0.275,0.153,0.095,northwest,2.4,No
2018/12/20,02:30,0.228,0.189,0.306,0.289,0.275,0.153,0.095,northwest,2.5,No
2018/12/20,02:40,0.228,0.190,0.306,0.289,0.275,0.153,0.095,west-northwest,3.2,No
2018/12/20,02:50,0.228,0.190,0.307,0.287,0.276,0.153,0.095,west-northwest,3.5,No
2018/12/20,03:00,0.230,0.191,0.307,0.287,0.274,0.153,0.095,northwest,2.7,No
2018/12/20,03:10,0.230,0.191,0.306,0.288,0.274,0.153,0.094,northwest,3.5,No
2018/12/20,03:20,0.229,0.190,0.307,0.289,0.275,0.153,0.094,north-northwest,3.2,No
2018/12/20,03:30,0.229,0.189,0.307,0.288,0.276,0.154,0.095,northwest,3.2,No
2018/12/20,03:40,0.229,0.190,0.307,0.289,0.276,0.153,0.094,north-northwest,3.2,No
2018/12/20,03:50,0.229,0.191,0.307,0.290,0.275,0.153,0.094,northwest,3.8,No
2018/12/20,04:00,0.230,0.191,0.306,0.290,0.275,0.153,0.095,northwest,4.1,No
2018/12/20,04:10,0.230,0.191,0.307,0.288,0.275,0.153,0.095,west-northwest,3.3,No
2018/12/20,04:20,0.228,0.190,0.307,0.288,0.275,0.153,0.095,west-northwest,3.7,No
2018/12/20,04:30,0.229,0.190,0.307,0.289,0.275,0.153,0.095,west-northwest,5.6,No
2018/12/20,04:40,0.228,0.190,0.308,0.289,0.276,0.153,0.094,west,7.4,No
2018/12/20,04:50,0.228,0.191,0.307,0.287,0.274,0.153,0.094,west,8.1,No
2018/12/20,05:00,0.228,0.189,0.307,0.288,0.275,0.153,0.094,west,10.6,No
2018/12/20,05:10,0.228,0.189,0.307,0.288,0.275,0.153,0.094,west,12.2,No
2018/12/20,05:20,0.229,0.191,0.307,0.288,0.275,0.154,0.095,west,12.0,No
2018/12/20,05:30,0.228,0.189,0.307,0.287,0.275,0.154,0.094,west,11.4,No
2018/12/20,05:40,0.228,0.190,0.308,0.288,0.275,0.153,0.095,west,8.7,No
2018/12/20,05:50,0.228,0.190,0.307,0.289,0.275,0.153,0.094,west,6.2,No
2018/12/20,06:00,0.227,0.190,0.309,0.289,0.276,0.153,0.095,west-northwest,5.5,No
2018/12/20,06:10,0.229,0.191,0.308,0.288,0.276,0.153,0.095,west-northwest,4.7,No
2018/12/20,06:20,0.229,0.189,0.307,0.287,0.276,0.153,0.095,west-northwest,5.0,No
2018/12/20,06:30,0.228,0.189,0.307,0.289,0.276,0.153,0.094,west-northwest,5.8,No
2018/12/20,06:40,0.228,0.190,0.308,0.289,0.276,0.153,0.095,west,6.7,No
2018/12/20,06:50,0.228,0.190,0.306,0.288,0.275,0.153,0.094,west-northwest,5.3,No
2018/12/20,07:00,0.228,0.191,0.306,0.288,0.276,0.154,0.094,west-northwest,4.6,No
2018/12/20,07:10,0.230,0.191,0.306,0.288,0.276,0.153,0.095,west,6.0,No
2018/12/20,07:20,0.229,0.191,0.308,0.289,0.276,0.153,0.094,west,7.8,No
2018/12/20,07:30,0.228,0.189,0.308,0.289,0.275,0.154,0.094,west,8.7,No
2018/12/20,07:40,0.228,0.190,0.307,0.288,0.275,0.154,0.094,west,10.9,No
2018/12/20,07:50,0.228,0.190,0.307,0.288,0.275,0.153,0.094,west,11.4,No
2018/12/20,08:00,0.228,0.190,0.307,0.288,0.276,0.154,0.095,west,11.5,No
2018/12/20,08:10,0.228,0.190,0.307,0.287,0.275,0.154,0.094,west,8.4,No
2018/12/20,08:20,0.228,0.190,0.307,0.287,0.276,0.153,0.094,west,7.8,No
2018/12/20,08:30,0.228,0.190,0.307,0.289,0.276,0.153,0.094,west,8.4,No
2018/12/20,08:40,0.228,0.191,0.308,0.287,0.275,0.153,0.094,west-northwest,8.1,No
2018/12/20,08:50,0.227,0.191,0.307,0.287,0.276,0.154,0.095,west,8.1,No
2018/12/20,09:00,0.228,0.190,0.309,0.288,0.276,0.154,0.095,west-northwest,7.3,No
2018/12/20,09:10,0.228,0.190,0.307,0.288,0.275,0.153,0.094,west-northwest,6.6,No
2018/12/20,09:20,0.230,0.191,0.306,0.288,0.276,0.153,0.095,west,5.2,No
2018/12/20,09:30,0.228,0.190,0.308,0.288,0.277,0.154,0.095,west,4.3,No
2018/12/20,09:40,0.229,0.190,0.307,0.287,0.275,0.153,0.094,west-northwest,4.5,No
2018/12/20,09:50,0.228,0.190,0.307,0.288,0.276,0.155,0.094,west,5.7,No
2018/12/20,10:00,0.228,0.190,0.308,0.287,0.275,0.154,-,west,4.3,No
2018/12/20,10:10,0.227,0.189,0.306,0.287,0.276,0.153,-,west,6.0,No
2018/12/20,10:20,0.224,0.190,0.307,0.289,0.276,0.154,-,west,6.1,No
2018/12/20,10:30,0.228,0.191,0.308,0.287,0.275,0.153,-,west,4.9,No
2018/12/20,10:40,0.228,0.189,0.307,0.290,0.276,0.153,-,west,6.9,No
2018/12/20,10:50,0.227,0.189,0.307,0.287,0.276,0.153,-,west,4.9,No
2018/12/20,11:00,0.227,0.191,0.306,0.288,0.274,0.154,-,west,5.3,No
2018/12/20,11:10,0.227,0.190,0.307,0.287,0.278,0.152,-,west,4.3,No
2018/12/20,11:20,0.225,0.190,0.307,0.288,0.274,0.155,-,west,5.0,No
2018/12/20,11:30,0.227,0.189,0.307,0.288,0.275,0.154,-,west-northwest,3.7,No
2018/12/20,11:40,0.226,0.190,0.304,0.287,0.276,0.153,-,west-northwest,3.1,No
2018/12/20,11:50,0.228,0.190,0.307,0.288,0.278,0.154,-,west,5.5,No
2018/12/20,12:00,0.225,0.189,0.306,0.287,0.275,0.155,-,west,4.3,No
2018/12/20,12:10,0.228,0.190,0.306,0.289,0.275,0.153,-,west,8.7,No
2018/12/20,12:20,0.227,0.190,0.307,0.288,0.276,0.153,-,west-northwest,11.2,No
2018/12/20,12:30,0.228,0.189,0.305,0.289,0.274,0.152,-,west-northwest,8.4,No
2018/12/20,12:40,0.228,0.190,0.307,0.287,0.276,0.154,-,west-northwest,8.1,No
2018/12/20,12:50,0.227,0.190,0.307,0.290,0.278,0.154,-,northwest,4.3,No
2018/12/20,13:00,0.227,0.191,0.308,0.288,0.277,0.153,-,west-northwest,1.8,No
2018/12/20,13:10,0.226,0.190,0.307,0.290,0.278,0.154,-,northeast,1.5,No
2018/12/20,13:20,0.228,0.189,0.306,0.287,0.277,0.153,-,east-northeast,3.2,No
2018/12/20,13:30,0.227,0.190,0.308,0.289,0.279,0.155,-,north-northeast,1.0,No
2018/12/20,13:40,0.227,0.191,0.307,0.287,0.278,0.154,-,west-northwest,6.0,No
2018/12/20,13:50,0.227,0.191,0.306,0.291,0.278,0.153,-,northwest,5.7,No
2018/12/20,14:00,0.225,0.190,0.307,0.287,0.272,0.154,-,northwest,4.7,No
2018/12/20,14:10,0.225,0.190,0.307,0.289,0.271,0.154,-,west-northwest,7.0,No
2018/12/20,14:20,0.227,0.190,0.309,0.287,0.270,0.153,-,west-northwest,7.0,No
2018/12/20,14:30,0.227,0.190,0.307,0.290,0.277,0.153,-,north-northeast,2.5,No
2018/12/20,14:40,0.227,0.190,0.307,0.288,0.277,0.154,-,east-northeast,2.7,No
2018/12/20,14:50,0.230,0.190,0.308,0.288,0.276,0.153,-,west,4.0,No
2018/12/20,15:00,0.227,0.191,0.307,0.288,0.279,0.153,-,west,8.9,No
2018/12/20,15:10,0.228,0.191,0.308,0.289,0.276,0.155,-,west-northwest,7.5,No
2018/12/20,15:20,0.229,0.191,0.308,0.292,0.277,0.154,0.093,west-northwest,7.0,No
2018/12/20,15:30,0.229,0.190,0.308,0.289,0.277,0.154,0.094,west-northwest,7.3,No
2018/12/20,15:40,0.228,0.191,0.307,0.289,0.276,0.154,0.094,west-northwest,7.1,No
2018/12/20,15:50,0.228,0.189,0.309,0.290,0.277,0.154,0.094,west-northwest,6.4,No
2018/12/20,16:00,0.228,0.191,0.307,0.290,0.278,0.155,0.093,west-northwest,6.3,No
2018/12/20,16:10,0.228,0.191,0.309,0.290,0.278,0.155,0.094,west-northwest,4.4,No
2018/12/20,16:20,0.228,0.191,0.309,0.290,0.277,0.154,0.094,west,4.3,No
2018/12/20,16:30,0.229,0.191,0.308,0.290,0.276,0.155,0.094,west-northwest,2.3,No
2018/12/20,16:40,0.227,0.191,0.308,0.289,0.276,0.154,0.094,west-northwest,3.1,No
2018/12/20,16:50,0.227,0.191,0.308,0.290,0.278,0.154,0.094,northwest,1.2,No
2018/12/20,17:00,0.228,0.191,0.309,0.290,0.277,0.154,0.094,west-northwest,0.6,No
2018/12/20,17:10,0.228,0.191,0.307,0.291,0.276,0.154,0.094,northwest,1.7,No
2018/12/20,17:20,0.227,0.191,0.307,0.290,0.276,0.155,0.094,north-northwest,2.0,No
2018/12/20,17:30,0.229,0.191,0.308,0.290,0.276,0.155,0.094,north,2.5,No
2018/12/20,17:40,0.228,0.191,0.309,0.290,0.276,0.154,0.094,north-northwest,2.6,No
2018/12/20,17:50,0.229,0.192,0.309,0.290,0.276,0.155,0.094,north,1.8,No
2018/12/20,18:00,0.228,0.190,0.308,0.289,0.278,0.154,0.094,north-northwest,2.2,No
2018/12/20,18:10,0.229,0.190,0.308,0.289,0.276,0.154,0.094,north,1.8,No
2018/12/20,18:20,0.230,0.190,0.310,0.290,0.276,0.154,0.094,north-northeast,2.1,No
2018/12/20,18:30,0.229,0.192,0.309,0.289,0.276,0.154,0.094,north-northeast,2.6,No
2018/12/20,18:40,0.228,0.191,0.307,0.290,0.276,0.154,0.094,north,2.0,No
2018/12/20,18:50,0.229,0.190,0.308,0.291,0.276,0.154,0.095,north,0.8,No
2018/12/20,19:00,0.229,0.190,0.309,0.289,0.277,0.154,0.093,northeast,1.4,No
2018/12/20,19:10,0.228,0.192,0.309,0.289,0.276,0.154,0.094,northeast,2.0,No
2018/12/20,19:20,0.229,0.190,0.307,0.290,0.276,0.154,0.094,northeast,1.3,No
2018/12/20,19:30,0.228,0.190,0.308,0.289,0.277,0.154,0.094,east-northeast,1.8,No
2018/12/20,19:40,0.229,0.191,0.309,0.291,0.276,0.154,0.094,northeast,1.0,No
2018/12/20,19:50,0.229,0.190,0.308,0.289,0.275,0.154,0.094,north-northeast,1.7,No
2018/12/20,20:00,0.229,0.192,0.308,0.289,0.277,0.154,0.094,west-southwest,1.6,No
2018/12/20,20:10,0.229,0.191,0.308,0.290,0.277,0.154,0.093,northwest,1.6,No
2018/12/20,20:20,0.229,0.191,0.307,0.291,0.277,0.154,0.094,north,1.0,No
2018/12/20,20:30,0.230,0.190,0.308,0.290,0.274,0.154,0.094,northwest,1.1,No
2018/12/20,20:40,0.228,0.191,0.308,0.291,0.277,0.154,0.094,-,CALM,No
2018/12/20,20:50,0.228,0.191,0.308,0.290,0.277,0.154,0.094,north-northeast,0.7,No
2018/12/20,21:00,0.230,0.191,0.309,0.289,0.276,0.154,0.094,north-northwest,1.2,No
2018/12/20,21:10,0.228,0.190,0.308,0.290,0.277,0.154,0.094,northeast,1.3,No
2018/12/20,21:20,0.229,0.191,0.309,0.289,0.275,0.155,0.094,north,1.7,No
2018/12/20,21:30,0.229,0.191,0.308,0.289,0.277,0.154,0.094,north-northeast,2.0,No
2018/12/20,21:40,0.229,0.192,0.308,0.289,0.277,0.155,0.095,northeast,2.1,No
2018/12/20,21:50,0.229,0.190,0.308,0.289,0.275,0.153,0.094,north-northeast,1.9,No
2018/12/20,22:00,0.229,0.191,0.308,0.290,0.276,0.154,0.094,northeast,1.7,No
2018/12/20,22:10,0.229,0.191,0.308,0.288,0.277,0.154,0.094,north,1.6,No
2018/12/20,22:20,0.229,0.191,0.308,0.289,0.276,0.154,0.094,north-northeast,2.2,No
2018/12/20,22:30,0.229,0.190,0.308,0.289,0.276,0.154,0.094,northeast,2.6,No
2018/12/20,22:40,0.228,0.190,0.308,0.290,0.276,0.154,0.094,northeast,2.9,No
2018/12/20,22:50,0.230,0.190,0.308,0.290,0.276,0.154,0.094,north-northeast,2.3,No
2018/12/20,23:00,0.228,0.191,0.309,0.289,0.276,0.154,0.094,north-northeast,1.4,No
2018/12/20,23:10,0.228,0.191,0.307,0.289,0.277,0.154,0.094,northwest,1.5,No
2018/12/20,23:20,0.228,0.191,0.308,0.290,0.274,0.154,0.094,northwest,3.6,No
2018/12/20,23:30,0.228,0.190,0.307,0.290,0.276,0.154,0.095,northwest,4.3,No
2018/12/20,23:40,0.228,0.190,0.309,0.289,0.277,0.154,0.094,north,3.6,No
2018/12/20,23:50,0.229,0.191,0.310,0.290,0.277,0.155,0.094,north,4.1,No
